Wind_Speed
31 36 32 33 33 31 30 31 29 28 29 25 19 12 9 4 1 6 9 11 12 12 11 10 11 9 6 5 6 7 10 8 11 14 18 21 22 23 26 27 27 29 29
32 35 32 31 29 30 31 30 30 29 30 30 18 12 10 8 4 3 5 8 10 11 11 11 10 9 7 5 6 7 9 12 14 18 22 23 23 23 25 26 26 25 28
34 34 37 32 30 30 31 31 30 30 30 30 28 17 10 8 9 7 7 8 8 9 10 11 10 9 8 7 8 10 12 14 17 22 23 23 23 22 24 25 24 24 26
37 35 34 31 30 30 30 31 30 30 32 32 32 30 20 9 8 13 11 10 10 10 10 11 11 10 9 8 10 13 16 16 18 24 25 25 24 22 23 24 23 25 27
38 40 32 33 31 30 31 30 31 30 30 30 33 32 31 27 12 10 15 13 12 11 11 11 11 12 11 10 12 15 18 19 21 25 27 25 24 22 23 23 24 25 28
38 42 34 32 32 32 34 32 31 32 31 29 31 32 30 29 26 11 12 15 15 14 13 12 12 12 13 12 13 16 18 20 23 24 26 23 24 23 23 23 25 26 26
36 42 41 33 32 31 33 35 31 32 32 30 32 32 33 31 30 27 16 11 16 17 16 15 14 14 15 14 14 17 20 22 23 27 26 24 23 24 24 24 25 26 27
34 40 42 39 36 33 32 35 33 34 33 32 33 32 31 30 31 30 26 25 11 14 17 18 17 16 16 16 17 19 22 24 25 26 24 23 24 24 25 26 25 27 27
32 39 42 39 39 39 35 32 32 33 33 33 35 35 34 30 29 28 29 28 25 13 17 18 19 18 18 18 19 20 24 24 26 24 22 24 25 24 25 27 26 26 27
31 38 42 40 38 41 36 33 34 29 32 34 38 37 40 40 31 28 26 27 29 23 15 16 19 21 20 19 19 22 25 26 27 23 22 25 25 25 25 26 28 26 26
31 35 40 41 39 43 35 36 36 35 32 36 41 42 43 44 43 35 25 27 27 28 23 15 19 21 21 20 21 22 27 31 28 26 21 26 26 27 25 26 26 27 26
28 32 36 38 39 41 41 38 36 35 34 34 40 43 44 44 42 40 29 27 24 26 26 19 17 21 22 23 23 23 30 33 32 28 26 27 28 28 27 27 26 27 26
20 26 32 35 37 39 42 39 35 34 31 31 39 42 44 45 45 40 38 32 26 27 26 24 14 12 19 25 28 28 28 34 34 31 29 29 31 30 28 27 27 28 27
20 24 28 31 35 39 40 39 32 32 31 30 37 40 42 41 42 39 37 33 32 29 27 25 22 20 14 18 30 29 31 34 36 32 30 35 34 32 30 28 28 29 28
19 22 25 28 32 35 38 37 30 28 30 30 37 40 39 37 34 33 30 33 34 30 26 25 27 16 21 16 22 32 32 34 37 35 30 35 33 36 30 28 29 29 30
16 20 23 27 30 32 35 37 31 26 29 33 37 38 39 31 29 27 26 28 33 35 31 29 29 22 24 21 23 31 33 36 38 38 37 37 34 38 33 28 30 30 30
15 17 21 25 28 30 32 35 34 24 27 32 34 37 38 29 27 24 23 24 31 37 31 31 26 25 21 18 19 31 35 35 38 39 38 37 37 38 36 31 33 33 32
11 15 19 22 25 27 30 33 34 27 25 30 32 35 39 30 26 24 22 24 26 32 33 30 30 28 28 23 23 20 35 36 38 39 38 36 36 32 33 36 38 35 36
12 14 16 19 21 24 27 30 31 23 23 30 33 31 34 30 26 26 26 27 25 26 29 32 29 28 27 30 19 23 29 36 37 37 38 37 37 39 46 41 37 37 37
10 11 13 16 18 22 26 30 32 24 23 31 35 29 28 24 26 24 26 26 25 25 26 33 31 30 23 24 26 25 25 37 37 32 35 36 39 41 41 40 43 34 36
10 11 13 16 18 23 27 29 31 24 25 32 33 31 27 23 23 22 23 23 25 25 27 28 26 26 24 30 17 13 1 20 22 30 29 31 36 43 46 42 39 44 41
13 10 11 14 16 21 24 27 25 21 25 26 31 32 28 24 22 22 23 23 25 26 26 28 28 26 19 25 11 12 4 4 11 14 13 27 32 36 34 42 40 40 40
19 9 10 13 16 21 24 27 24 25 26 25 31 32 30 24 22 22 22 22 24 25 23 25 27 27 21 20 21 4 3 2 0 12 19 20 27 33 35 39 45 48 48
18 6 10 12 17 22 24 22 20 25 22 25 25 27 30 28 21 23 24 22 22 24 23 23 25 28 24 21 21 20 13 12 4 3 12 22 24 29 32 39 45 46 47
11 7 10 12 18 20 20 16 23 24 22 25 28 25 28 32 26 22 26 24 23 21 23 22 28 30 22 19 20 20 18 17 22 3 4 8 17 26 32 35 37 40 43
8 7 10 14 17 18 17 17 22 22 24 28 29 24 27 30 28 23 25 25 24 23 22 26 34 25 20 22 21 19 14 8 15 7 3 3 5 14 24 26 32 36 37
Wind_Direction
352 360 359 360 359 360 2 2 2 4 7 10 11 1 343 334 185 181 187 192 192 198 202 188 182 183 188 190 186 189 202 201 167 150 147 137 134 136 136 139 138 136 136
3 6 4 3 3 4 6 6 5 5 5 9 6 5 348 307 283 249 215 202 200 203 204 194 193 199 198 197 186 178 175 169 163 151 144 141 141 139 143 142 140 140 138
14 15 14 6 8 8 7 7 7 8 9 8 9 1 347 330 284 256 238 224 214 212 213 212 206 210 214 203 203 181 173 169 164 155 150 147 147 147 146 147 145 145 137
21 23 19 11 13 12 11 10 10 9 10 9 8 8 1 343 311 276 252 237 228 220 220 220 223 222 219 211 200 191 180 174 167 157 156 152 152 153 152 149 148 147 139
26 25 19 16 17 17 15 13 12 7 4 6 7 6 6 5 334 315 268 253 242 233 229 228 223 224 226 214 199 194 183 178 175 168 161 158 156 156 155 153 151 150 146
26 25 24 19 19 20 18 16 14 13 10 7 6 6 4 4 3 315 281 267 255 246 240 232 225 224 224 216 198 188 185 182 176 172 165 163 161 159 161 160 156 155 152
27 25 25 20 19 20 20 19 18 17 16 13 9 6 5 3 3 3 353 286 271 260 248 239 228 221 221 211 195 185 186 180 180 175 175 172 166 164 164 166 162 159 157
30 26 25 24 22 22 18 18 19 18 18 15 10 4 2 359 359 357 358 1 283 277 264 252 233 223 219 211 197 190 187 178 178 177 180 179 169 168 167 168 166 165 164
31 25 24 24 22 23 23 16 16 17 16 15 12 10 7 359 356 353 353 354 355 272 270 256 246 228 220 214 204 195 189 179 183 183 183 180 176 174 171 170 169 168 170
31 25 23 23 21 19 18 17 17 12 13 13 12 11 9 9 359 347 341 348 350 352 269 259 249 237 225 217 211 201 193 191 186 187 188 187 181 177 172 172 174 174 174
31 28 23 21 18 15 18 15 15 18 11 11 10 8 6 6 6 356 340 342 342 346 346 253 250 247 228 221 212 209 200 201 199 194 214 193 188 179 177 176 178 181 180
31 27 23 23 19 15 15 10 12 13 14 12 11 9 5 2 3 2 354 346 339 346 339 341 252 243 243 221 216 211 210 205 210 210 195 193 192 184 182 181 182 186 184
39 31 24 20 17 16 14 12 15 17 15 12 10 8 7 2 360 2 4 357 340 336 333 338 328 278 237 242 217 212 217 210 213 207 195 196 194 189 185 186 188 189 187
41 31 23 19 17 14 14 16 17 22 19 11 4 4 6 5 1 0 0 2 357 345 340 338 333 322 281 243 238 215 214 216 211 209 211 202 196 193 186 188 190 192 192
39 29 23 18 18 16 16 17 14 15 17 10 6 1 360 2 2 358 354 355 360 358 349 349 326 324 316 268 259 228 217 216 212 207 207 191 197 192 191 187 191 192 197
40 25 19 18 15 14 16 15 12 10 10 9 6 1 358 360 2 357 354 352 352 355 355 345 342 328 320 302 261 237 220 215 213 206 207 204 202 196 195 190 196 196 196
28 17 17 16 12 11 13 15 14 9 4 6 7 7 8 4 3 1 353 354 353 355 356 349 337 338 317 310 288 240 229 216 211 209 210 211 208 200 222 211 209 199 198
20 14 13 10 8 7 10 11 11 7 2 4 6 3 2 2 4 8 353 351 351 355 354 352 349 337 334 314 301 253 232 220 210 206 206 213 201 202 203 213 208 202 203
11 8 7 5 7 6 8 8 9 4 2 4 4 359 0 4 5 10 3 360 350 353 356 351 348 347 336 326 301 310 231 225 209 203 201 203 203 196 193 203 206 202 207
358 356 1 4 4 4 5 4 5 6 1 4 2 359 2 4 2 2 0 357 353 350 355 357 351 345 341 330 312 283 250 221 209 203 199 199 199 199 201 209 213 208 217
336 342 360 1 4 4 6 4 3 3 1 3 8 10 8 6 360 359 358 356 355 351 350 354 354 345 351 348 326 240 150 189 190 203 199 202 203 201 206 205 217 215 213
333 340 356 0 4 6 4 1 3 3 3 2 9 13 12 6 358 357 356 355 356 350 352 352 357 354 344 352 331 294 284 199 221 207 206 203 208 205 209 216 220 213 213
352 341 359 6 7 5 359 358 4 6 1 358 6 9 11 7 360 356 358 356 357 355 350 353 353 355 341 343 345 285 345 292 340 225 210 231 210 213 202 201 186 221 199
352 0 9 12 7 4 357 2 9 359 352 353 352 360 7 9 358 355 358 356 358 355 352 352 355 348 345 342 355 345 352 297 305 187 216 233 230 212 210 203 201 202 198
6 33 20 13 7 4 358 9 2 360 353 349 351 350 358 2 2 359 3 3 360 354 352 355 353 354 347 341 341 340 332 315 264 244 207 180 208 215 217 210 212 205 197
51 34 20 12 10 3 3 11 8 3 357 352 353 353 351 350 355 3 1 2 5 4 0 358 348 355 348 347 343 340 333 325 332 337 5 0 195 197 211 212 213 210 213
Height
871 864 858 852 847 843 838 833 828 824 820 817 814 813 813 812 810 808 807 806 806 806 806 806 805 805 805 805 806 807 807 808 809 810 811 813 814 816 817 819 821 823 824
875 866 860 854 851 846 840 835 831 826 822 817 814 812 812 813 811 810 809 807 806 806 805 805 805 805 804 805 805 806 807 808 810 812 812 814 817 818 820 821 823 826 827
876 867 860 856 851 846 842 837 833 828 824 820 815 812 810 810 810 809 807 807 807 806 806 805 804 805 805 805 806 806 807 809 810 812 814 815 817 820 821 823 825 828 830
877 868 864 860 854 849 844 840 835 830 825 822 817 813 810 808 807 807 805 805 805 805 805 805 805 804 805 806 806 808 808 810 811 813 813 816 818 821 823 825 827 830 832
877 870 865 861 856 851 847 841 837 832 827 824 820 815 811 807 805 804 804 804 804 803 803 803 803 803 803 804 805 807 809 809 811 812 814 816 819 822 825 826 828 831 833
880 873 868 864 859 853 849 843 838 834 829 826 822 818 813 808 804 802 802 802 802 802 802 801 802 802 802 803 804 805 807 810 811 813 816 817 819 821 825 827 829 832 835
882 876 870 865 860 856 851 846 841 836 832 828 824 819 815 811 805 801 799 799 800 800 799 799 800 800 801 802 804 803 806 808 811 813 815 817 819 821 825 828 830 833 837
884 879 873 868 863 858 854 849 845 840 836 831 825 821 815 812 806 803 799 797 797 796 797 797 798 798 799 801 802 803 805 806 811 812 815 817 819 822 825 827 831 834 838
885 879 874 870 865 860 855 851 847 842 837 833 828 822 817 812 807 804 800 797 794 793 794 794 796 796 797 800 802 802 805 805 809 811 814 817 818 821 824 827 831 835 838
885 880 876 872 867 862 857 854 849 844 840 834 829 823 818 812 807 802 799 797 794 791 790 791 791 793 794 799 800 801 803 806 806 810 812 815 818 821 823 826 830 835 838
886 882 878 873 869 864 859 855 850 845 841 835 830 825 818 813 808 803 800 796 793 790 786 786 788 788 789 795 798 800 801 804 804 807 809 813 817 819 822 825 829 835 838
887 884 881 876 871 866 861 856 851 847 843 838 832 827 821 816 810 805 800 793 792 788 786 782 783 784 784 787 793 796 798 799 801 803 805 809 814 817 821 823 828 833 837
892 888 883 879 874 869 863 858 852 848 844 840 835 829 824 818 811 804 800 795 792 789 786 782 778 780 778 782 784 787 792 795 797 799 802 806 810 814 818 822 827 832 836
893 889 885 880 875 870 865 860 856 851 847 842 838 832 827 820 814 808 804 798 792 785 787 785 781 776 773 774 779 780 785 790 791 796 797 801 805 810 814 819 825 831 836
893 890 886 882 877 873 868 863 858 853 849 846 841 836 830 824 818 812 807 801 798 791 783 772 787 771 770 768 772 773 778 783 788 790 792 797 801 805 810 814 822 828 834
894 890 887 883 879 875 869 865 859 855 851 847 843 837 832 827 821 815 811 804 799 795 786 773 767 771 768 768 768 769 770 775 781 784 786 793 798 801 807 811 819 825 831
894 891 887 883 879 875 870 865 861 857 853 848 844 839 833 828 822 817 813 808 802 796 792 787 782 772 769 767 764 764 765 769 774 778 780 785 791 798 802 809 816 820 827
894 892 888 884 880 876 871 867 862 858 854 849 844 839 834 829 823 817 814 811 806 799 791 787 782 774 763 765 764 757 760 763 768 771 775 778 783 791 791 803 813 816 823
894 891 888 884 880 877 873 868 863 859 854 849 844 839 834 830 825 819 815 811 807 802 796 791 785 779 771 761 747 750 753 756 761 764 769 774 780 786 794 802 807 813 819
895 891 888 885 881 878 873 868 864 859 855 850 845 840 835 830 826 821 816 811 806 802 798 793 782 774 772 765 747 742 750 751 754 758 763 769 774 781 788 795 801 808 815
894 891 888 885 881 877 872 866 862 858 854 850 845 840 835 831 827 822 818 813 808 803 798 795 791 784 770 766 759 748 735 745 748 753 758 764 770 776 782 789 795 800 808
893 891 889 886 882 878 873 869 864 860 856 852 847 842 837 832 828 823 819 814 808 804 799 793 789 784 778 775 770 756 743 743 744 748 753 759 765 771 775 780 783 789 805
892 890 889 885 882 879 874 870 866 862 857 852 847 842 838 833 829 825 819 815 809 805 802 797 790 788 784 778 776 765 758 741 743 745 747 754 757 763 769 777 779 776 792
891 890 889 886 883 880 875 871 868 864 859 854 849 845 840 834 830 825 819 815 810 806 803 799 794 789 783 776 765 764 763 769 756 744 743 750 752 756 761 770 777 782 785
891 891 889 887 884 881 877 873 870 865 861 855 850 845 840 835 830 825 820 814 811 806 803 799 795 789 784 778 774 768 767 766 758 752 741 748 752 752 755 761 767 776 782
892 892 890 888 885 882 877 875 871 865 860 854 848 843 839 834 829 825 820 816 811 807 803 799 795 789 785 780 774 771 771 769 756 758 751 745 745 746 750 757 762 768 776